Wind_Speed
18 17 17 16 16 15 16 16 15 13 12 11 11 11 10 8 7 7 7 7 8 8 7 8 7 6 6 6 6 6 7 7 7 6 5 5 5 6 6 5 6 5 6 7 8 8 7 7 7
18 17 17 17 17 17 18 17 16 14 13 12 11 11 10 8 7 7 7 7 7 7 7 8 6 5 5 5 5 5 6 6 6 5 5 4 4 5 5 5 5 5 5 6 7 7 6 6 6
17 16 17 18 20 19 19 18 17 15 14 13 12 11 10 9 8 7 7 6 7 6 6 6 5 4 4 4 4 5 5 5 5 4 4 4 3 4 5 5 5 5 5 5 6 6 5 5 6
17 16 18 19 21 20 20 18 17 16 15 13 12 11 10 9 8 7 7 6 6 6 5 5 4 4 4 4 4 4 4 4 4 4 4 4 3 4 4 3 4 5 5 4 4 5 4 4 5
17 18 19 20 20 20 19 18 17 16 15 14 13 11 10 9 8 7 7 6 6 6 5 4 4 4 4 4 4 4 4 4 4 4 3 3 3 3 3 2 3 4 4 4 4 4 4 4 5
17 18 19 19 19 19 19 18 16 15 15 15 14 13 10 10 9 7 7 6 6 6 5 4 4 4 4 4 3 4 3 3 3 3 3 3 3 3 3 2 3 3 3 4 3 3 4 5 5
16 18 18 18 17 17 17 17 15 14 14 15 15 15 13 12 10 9 8 8 7 6 5 4 4 4 4 3 3 3 3 3 3 3 3 3 3 2 3 2 2 3 3 3 3 3 4 4 4
16 18 18 17 16 15 16 16 15 15 16 16 16 15 14 13 11 10 9 9 8 7 5 4 4 3 3 3 3 3 3 3 3 3 3 3 2 2 2 2 2 3 3 3 2 3 4 3 3
15 16 16 15 15 15 15 15 16 17 16 16 16 15 14 13 12 12 11 10 9 8 6 5 4 3 3 3 2 2 2 3 3 3 4 3 2 2 2 3 3 3 3 3 3 4 4 4 3
14 14 13 13 13 14 14 14 15 17 16 16 15 15 14 14 12 12 11 10 10 9 7 6 5 3 3 2 2 2 2 2 2 3 3 3 3 3 3 3 3 3 4 4 4 5 5 4 4
12 11 11 11 12 13 13 14 15 16 16 16 16 15 14 13 12 12 12 11 11 9 8 8 7 5 3 2 1 1 2 1 2 2 3 3 4 3 3 4 4 4 5 5 4 5 5 5 5
8 9 10 11 12 12 13 14 15 16 16 16 16 15 14 13 12 12 11 11 10 10 9 8 7 6 5 3 2 2 1 1 1 1 2 3 3 3 4 4 5 5 5 5 5 6 5 5 6
8 8 9 10 10 11 13 14 15 16 15 16 16 15 13 12 13 12 11 11 10 9 9 8 7 6 5 4 2 1 1 1 1 1 1 2 3 3 4 4 5 5 5 5 6 7 7 5 5
7 7 7 8 9 11 12 13 14 15 14 14 14 14 13 12 12 12 11 10 9 9 9 9 8 7 5 4 2 1 1 1 1 0 0 2 3 4 5 5 5 5 5 5 6 7 8 6 5
5 5 6 6 7 8 10 12 14 14 14 13 14 13 13 13 12 11 12 11 10 8 8 8 7 6 6 5 3 2 1 1 0 1 1 1 2 3 4 4 5 6 6 6 5 6 7 6 6
4 3 3 5 6 8 10 11 12 13 14 14 15 13 12 11 11 11 11 10 9 8 8 7 7 6 6 5 4 2 2 1 1 2 2 2 2 3 3 4 4 4 4 4 4 4 5 6 6
4 3 2 2 6 8 9 11 11 11 13 14 14 13 12 12 11 11 10 10 9 8 7 7 7 6 6 6 4 2 2 2 2 2 3 3 4 3 3 4 5 4 5 5 5 5 6 6 6
4 3 2 1 5 7 9 10 10 10 12 13 13 13 12 12 11 11 11 10 9 8 7 7 7 6 6 6 5 4 3 2 2 2 3 4 4 4 4 4 5 5 5 6 6 6 6 7 8
5 5 4 3 4 7 9 10 10 9 10 12 14 14 13 11 11 11 11 10 9 9 9 8 7 6 6 6 6 6 4 3 3 3 4 4 4 5 5 5 5 6 6 7 7 7 8 8 9
6 5 5 5 6 9 10 11 11 9 10 11 13 13 14 12 11 11 11 11 9 9 9 9 8 7 6 6 6 6 5 4 4 4 4 5 5 5 6 7 6 7 7 7 7 8 8 9 10
8 9 8 8 7 9 11 11 10 10 11 11 12 13 13 12 12 12 11 10 10 10 10 9 9 8 8 7 6 6 5 5 5 4 4 4 4 5 5 6 7 7 8 8 8 8 8 8 10
9 9 9 9 11 11 11 12 11 12 11 10 11 11 12 12 13 12 12 11 10 10 9 9 9 9 8 8 7 7 6 5 5 4 4 4 6 6 6 7 8 8 9 9 9 9 9 9 10
10 10 10 10 11 12 12 14 12 12 11 10 10 10 11 12 13 12 11 11 10 10 10 10 8 8 8 7 7 7 6 6 5 5 5 5 6 6 6 7 8 9 10 10 11 10 10 11 11
12 12 12 12 12 12 12 14 12 13 12 12 11 11 11 12 13 12 12 12 11 11 12 11 9 8 7 7 7 7 6 6 6 6 5 6 6 6 7 7 8 8 10 10 11 12 12 12 12
14 14 14 14 14 12 12 14 12 12 12 12 13 13 13 12 13 14 13 12 12 12 12 12 11 8 8 7 7 7 6 6 6 6 6 6 6 6 7 7 8 9 9 10 11 11 12 12 13
15 15 15 16 15 13 13 14 12 11 12 13 14 15 14 13 13 13 13 13 13 13 13 12 11 9 9 8 8 8 8 7 7 7 6 7 7 7 7 8 9 9 10 11 12 12 12 13 13
16 16 16 17 17 17 16 15 14 13 12 13 14 14 14 15 14 14 13 13 14 14 13 12 11 11 11 10 10 9 9 9 9 8 8 8 9 9 9 10 11 12 12 12 12 13 14 15 15
16 16 17 18 19 19 18 18 17 15 14 15 16 16 16 17 16 15 15 15 15 14 14 13 13 13 13 12 11 11 10 11 11 11 10 11 11 12 13 13 13 14 14 14 15 16 16 17 17
17 18 18 20 20 21 21 19 18 17 16 16 17 18 17 17 17 16 16 16 16 16 15 14 13 13 13 13 13 13 12 12 13 13 13 14 14 15 16 16 17 17 17 17 18 19 19 19 19
19 18 19 21 21 22 23 21 19 19 19 19 18 19 20 20 19 18 18 18 17 17 16 15 15 15 15 15 15 15 15 15 15 15 16 16 17 17 18 18 19 19 19 20 20 20 20 21 21
Wind_Direction
82 78 72 69 66 64 60 58 53 56 52 49 47 47 51 62 63 62 64 65 68 70 72 89 98 111 119 125 131 143 148 145 140 135 131 132 130 128 122 128 133 132 131 131 128 125 125 120 117
78 75 69 66 63 61 58 55 53 52 52 48 46 46 49 57 53 56 61 62 64 66 71 82 92 99 112 123 135 148 148 153 150 145 139 135 134 132 134 135 136 138 126 130 134 133 130 127 125
78 74 67 64 59 54 54 52 48 43 45 43 40 39 44 53 52 54 56 61 64 64 72 79 86 93 104 120 137 151 153 155 157 155 146 141 137 138 139 143 143 141 134 129 137 139 130 127 131
74 70 66 61 55 53 50 48 45 42 40 40 38 34 37 42 48 50 53 63 65 63 72 77 81 88 93 111 138 152 161 165 169 165 158 153 148 135 133 137 144 144 141 140 134 138 132 127 137
73 68 63 59 53 51 49 48 45 39 37 36 37 35 34 40 45 45 51 55 61 63 75 78 84 89 93 101 125 141 155 164 173 174 177 167 157 153 160 146 140 138 139 142 143 141 141 133 141
73 66 61 56 50 46 48 48 43 36 35 35 35 34 34 40 42 44 50 54 59 66 74 81 89 88 91 99 117 131 150 161 174 186 185 180 174 171 170 153 144 146 152 161 163 155 149 140 147
73 64 59 51 45 44 46 48 44 39 33 34 36 35 34 37 39 41 55 57 60 67 76 84 88 83 87 98 114 140 144 161 178 179 185 195 197 201 190 187 161 167 165 167 165 158 162 159 159
71 63 58 51 47 44 43 43 43 41 32 32 33 33 36 41 44 45 55 56 57 62 72 88 82 73 82 90 94 132 153 161 168 182 196 205 216 229 216 219 206 189 181 179 183 184 179 176 181
73 62 56 53 48 45 43 41 39 36 29 30 30 33 37 40 42 45 51 55 57 62 69 73 73 68 77 91 100 106 152 164 172 191 208 212 217 226 228 220 206 203 191 192 201 200 191 194 201
75 64 54 52 49 45 44 40 36 36 29 28 31 33 37 39 41 43 52 54 60 63 62 65 70 66 66 70 83 114 146 168 202 205 205 211 222 223 230 223 212 210 202 202 212 212 208 206 209
75 66 60 51 46 42 42 39 35 33 29 28 29 30 33 37 39 46 52 52 53 53 54 56 60 65 59 61 82 109 149 166 194 227 219 218 224 231 240 244 227 222 219 221 218 211 213 215 209
84 70 63 50 42 39 37 34 32 29 29 27 27 29 30 33 38 43 49 50 51 50 52 54 56 51 45 50 74 90 114 156 179 239 229 232 238 242 244 243 236 229 225 228 222 216 217 213 210
86 72 62 54 47 38 29 26 25 26 25 24 23 23 25 30 33 34 40 45 46 51 51 53 51 44 40 41 50 81 91 93 121 188 223 239 237 247 242 242 234 230 232 230 225 222 221 214 213
89 73 57 53 40 30 23 22 22 22 20 19 18 16 17 26 29 29 36 38 43 45 46 45 41 38 37 38 28 19 18 41 81 26 263 248 246 239 229 233 230 227 226 227 229 228 225 219 215
116 90 64 55 38 25 15 14 16 17 15 12 10 10 13 15 22 26 26 28 34 35 36 36 32 32 36 42 46 27 15 27 16 331 308 285 259 244 236 232 234 229 230 231 233 234 233 229 226
143 122 71 41 25 21 9 3 7 12 12 9 5 6 7 12 16 16 16 18 23 23 26 27 28 29 35 36 28 8 354 345 268 277 283 282 278 252 237 230 231 228 229 236 236 242 242 235 231
153 141 109 22 6 360 354 351 357 4 8 8 4 1 4 5 6 9 10 10 14 13 15 17 20 21 26 24 16 4 350 332 272 273 290 287 282 262 246 239 249 245 242 243 247 251 246 240 236
178 179 210 305 348 345 336 335 344 349 355 359 1 359 359 359 358 359 3 2 2 3 3 3 9 12 15 16 20 13 3 342 290 292 295 290 284 273 267 262 255 248 245 248 251 250 250 250 249
201 204 222 262 295 307 311 317 325 336 344 353 355 354 352 348 350 350 357 359 356 355 354 353 357 359 2 5 9 7 357 343 313 290 286 279 274 267 261 263 258 256 256 254 255 257 257 259 256
224 235 247 255 275 287 292 304 310 328 334 342 346 346 349 348 349 342 341 345 344 345 349 352 349 347 348 347 350 352 344 338 312 297 291 284 270 259 258 256 258 260 261 258 259 262 261 263 264
236 241 245 249 266 282 286 294 300 308 319 330 339 340 339 342 348 349 348 346 346 344 345 347 346 342 339 335 334 336 328 324 312 301 287 283 268 261 267 260 260 260 262 264 268 269 268 269 272
245 249 250 249 259 267 277 286 294 300 312 320 328 328 331 335 339 343 344 343 341 339 336 337 339 339 336 331 330 329 322 316 310 309 299 285 271 265 266 267 263 264 266 270 271 269 271 274 277
242 252 258 255 260 258 266 281 290 292 303 312 316 317 323 327 330 333 335 335 332 331 330 327 330 331 327 327 329 330 328 322 314 305 298 296 285 280 280 281 274 269 268 270 271 272 276 277 278
246 248 250 255 260 263 270 279 291 289 297 305 312 315 320 320 321 323 326 328 327 326 324 323 320 326 324 324 326 328 331 331 325 313 300 296 295 299 295 288 282 280 277 276 277 278 282 283 280
247 249 248 252 254 263 271 275 282 288 289 296 304 308 312 313 315 314 315 317 319 321 318 314 308 310 315 317 321 322 325 324 325 321 309 301 306 308 299 293 291 290 287 285 282 285 288 289 286
249 251 250 254 258 266 274 278 283 283 288 294 298 303 304 305 303 308 315 314 316 316 311 305 303 302 303 303 307 310 312 310 313 316 312 307 307 305 303 298 296 295 293 290 286 288 289 290 291
249 255 256 255 258 264 269 278 282 284 291 294 291 296 302 302 302 305 308 308 310 312 311 304 300 296 294 292 291 297 299 297 298 303 303 302 303 302 299 298 297 293 293 291 286 285 288 288 289
249 254 254 253 256 261 264 271 280 282 288 290 291 295 299 300 296 303 309 308 307 307 306 299 292 291 290 293 290 288 290 290 289 290 292 295 297 299 300 295 295 293 289 286 286 285 284 285 286
245 249 251 255 258 262 265 266 273 275 280 284 287 290 293 296 298 301 304 305 306 302 300 297 290 287 287 289 290 289 288 287 286 285 287 290 293 295 297 294 290 288 286 285 285 284 284 284 284
244 247 249 250 254 261 266 266 269 272 277 278 280 285 290 294 297 299 302 302 303 301 299 296 291 288 286 286 286 287 287 286 285 284 286 287 289 290 292 292 289 286 285 285 284 283 283 284 284
Height
5907 5906 5907 5907 5907 5906 5904 5904 5903 5903 5902 5902 5901 5901 5901 5901 5901 5902 5899 5898 5897 5896 5896 5895 5895 5896 5897 5898 5899 5900 5901 5901 5902 5902 5903 5903 5903 5903 5903 5903 5904 5904 5905 5905 5906 5906 5906 5906 5906
5909 5909 5909 5909 5907 5906 5906 5905 5905 5904 5903 5902 5902 5902 5901 5901 5901 5900 5899 5899 5898 5898 5898 5898 5897 5898 5898 5899 5900 5901 5901 5902 5903 5903 5904 5904 5904 5904 5904 5904 5905 5905 5905 5906 5906 5907 5907 5907 5907
5911 5911 5911 5910 5908 5908 5907 5907 5907 5906 5905 5904 5903 5903 5903 5902 5901 5900 5900 5899 5899 5899 5899 5899 5899 5899 5900 5900 5901 5902 5902 5903 5903 5904 5905 5905 5905 5905 5905 5905 5905 5906 5906 5906 5907 5907 5908 5908 5908
5914 5913 5913 5911 5910 5910 5909 5908 5908 5908 5906 5906 5905 5904 5903 5903 5902 5901 5900 5900 5900 5900 5900 5900 5900 5900 5901 5901 5901 5902 5903 5903 5904 5904 5905 5905 5905 5905 5906 5906 5906 5906 5907 5907 5907 5907 5908 5908 5908
5916 5915 5914 5913 5912 5912 5911 5910 5910 5910 5908 5907 5906 5905 5904 5903 5903 5901 5901 5901 5901 5901 5901 5901 5901 5901 5901 5902 5902 5902 5903 5903 5904 5905 5905 5905 5905 5906 5906 5906 5907 5907 5907 5907 5908 5908 5908 5908 5908
5919 5917 5916 5915 5915 5914 5913 5912 5912 5912 5910 5909 5907 5906 5904 5904 5903 5902 5901 5900 5901 5901 5901 5902 5902 5902 5902 5902 5902 5903 5903 5904 5904 5905 5905 5906 5906 5906 5907 5907 5907 5907 5908 5908 5908 5908 5908 5909 5909
5921 5919 5917 5917 5917 5916 5915 5915 5914 5913 5911 5910 5908 5907 5905 5904 5903 5902 5901 5901 5901 5901 5902 5902 5902 5902 5903 5903 5903 5903 5903 5904 5904 5905 5906 5906 5906 5906 5907 5907 5907 5908 5908 5908 5908 5908 5908 5909 5909
5921 5921 5919 5919 5919 5918 5917 5917 5916 5914 5913 5911 5909 5908 5906 5905 5903 5903 5902 5902 5902 5902 5902 5903 5903 5903 5903 5903 5903 5903 5904 5904 5905 5905 5905 5906 5906 5906 5906 5907 5907 5907 5908 5908 5908 5908 5909 5909 5909
5922 5922 5921 5921 5922 5920 5919 5919 5918 5916 5914 5913 5911 5909 5907 5905 5904 5904 5903 5903 5903 5903 5903 5903 5903 5903 5904 5904 5904 5904 5904 5905 5905 5905 5906 5906 5906 5906 5906 5907 5907 5907 5908 5908 5908 5908 5908 5908 5908
5923 5923 5923 5923 5923 5922 5921 5920 5919 5917 5916 5914 5912 5910 5908 5907 5906 5905 5905 5904 5904 5904 5904 5904 5904 5904 5904 5904 5904 5904 5905 5905 5905 5905 5905 5905 5906 5906 5906 5906 5906 5907 5907 5907 5907 5907 5907 5907 5908
5924 5924 5925 5924 5924 5923 5923 5922 5920 5919 5918 5916 5914 5912 5910 5909 5907 5906 5906 5905 5905 5905 5905 5905 5904 5904 5904 5904 5904 5904 5904 5904 5904 5905 5905 5905 5905 5905 5905 5905 5905 5906 5906 5906 5906 5906 5906 5906 5907
5926 5927 5926 5926 5925 5925 5925 5923 5922 5921 5920 5918 5915 5914 5912 5910 5909 5908 5907 5907 5906 5906 5906 5905 5905 5904 5904 5904 5904 5904 5904 5904 5904 5904 5904 5904 5904 5904 5904 5904 5904 5905 5905 5905 5906 5905 5905 5905 5905
5928 5928 5927 5926 5926 5926 5926 5924 5923 5922 5920 5919 5917 5916 5914 5912 5911 5909 5909 5908 5908 5907 5907 5906 5906 5905 5904 5904 5904 5903 5903 5903 5903 5903 5903 5903 5903 5903 5903 5903 5903 5904 5904 5904 5904 5903 5904 5904 5904
5928 5928 5928 5928 5928 5927 5926 5926 5925 5923 5921 5920 5919 5917 5916 5914 5913 5911 5910 5909 5909 5908 5907 5907 5906 5905 5904 5904 5903 5903 5903 5903 5903 5903 5903 5902 5902 5902 5901 5902 5902 5902 5903 5903 5902 5902 5902 5903 5903
5929 5929 5929 5928 5927 5927 5927 5927 5925 5924 5922 5921 5920 5918 5917 5915 5914 5912 5911 5910 5909 5909 5908 5907 5906 5905 5904 5904 5903 5902 5902 5902 5902 5902 5902 5902 5901 5901 5901 5901 5901 5901 5901 5901 5901 5901 5901 5902 5902
5929 5930 5929 5929 5928 5927 5928 5927 5926 5924 5923 5922 5920 5919 5918 5916 5915 5914 5912 5911 5910 5909 5908 5907 5906 5905 5905 5904 5902 5901 5901 5901 5901 5901 5901 5901 5900 5900 5900 5900 5900 5900 5900 5900 5900 5900 5900 5901 5901
5929 5929 5929 5928 5928 5927 5927 5926 5926 5925 5924 5923 5921 5920 5919 5917 5916 5914 5913 5911 5910 5909 5908 5907 5906 5905 5904 5903 5902 5901 5900 5900 5900 5900 5900 5899 5899 5899 5899 5899 5899 5898 5899 5899 5899 5899 5899 5900 5900
5929 5928 5928 5928 5927 5927 5926 5926 5926 5924 5923 5923 5921 5920 5919 5917 5916 5915 5913 5911 5910 5909 5908 5907 5906 5905 5904 5903 5902 5900 5899 5899 5899 5898 5898 5898 5898 5897 5897 5897 5897 5897 5898 5898 5897 5898 5898 5898 5898
5927 5927 5927 5927 5926 5926 5925 5925 5925 5923 5923 5922 5921 5920 5918 5917 5916 5914 5913 5912 5910 5909 5908 5907 5905 5904 5903 5902 5901 5900 5899 5898 5898 5897 5897 5896 5896 5896 5896 5896 5896 5896 5896 5896 5896 5896 5896 5896 5896
5925 5925 5925 5925 5925 5925 5924 5924 5923 5922 5922 5921 5920 5919 5918 5917 5915 5914 5913 5911 5910 5909 5907 5906 5905 5904 5903 5902 5900 5899 5898 5897 5896 5895 5895 5895 5894 5894 5894 5894 5894 5894 5894 5894 5894 5894 5894 5894 5893
5923 5924 5923 5923 5923 5923 5923 5923 5922 5922 5920 5919 5919 5918 5917 5916 5914 5913 5911 5910 5909 5908 5907 5905 5904 5903 5902 5901 5900 5898 5897 5896 5894 5893 5893 5893 5893 5892 5892 5892 5892 5892 5892 5892 5892 5892 5892 5891 5891
5921 5922 5921 5921 5921 5921 5921 5920 5920 5919 5918 5917 5917 5917 5916 5915 5913 5912 5910 5909 5908 5907 5906 5904 5903 5902 5901 5899 5898 5897 5895 5894 5892 5892 5891 5891 5891 5891 5890 5890 5890 5890 5890 5890 5889 5889 5889 5888 5888
5918 5919 5919 5919 5919 5919 5919 5918 5918 5917 5916 5916 5915 5915 5914 5913 5912 5910 5909 5908 5906 5905 5904 5902 5901 5900 5899 5898 5897 5895 5894 5892 5891 5890 5890 5889 5889 5888 5888 5888 5887 5887 5887 5887 5886 5886 5886 5885 5885
5916 5916 5917 5917 5917 5917 5917 5916 5915 5914 5913 5913 5914 5913 5911 5911 5910 5908 5907 5906 5904 5903 5902 5900 5899 5898 5897 5896 5895 5894 5893 5891 5890 5888 5888 5888 5887 5886 5886 5885 5885 5884 5884 5884 5883 5883 5882 5882 5881
5913 5914 5914 5914 5914 5914 5913 5912 5913 5911 5911 5910 5910 5910 5909 5908 5907 5906 5904 5903 5902 5900 5899 5898 5897 5896 5895 5894 5893 5892 5891 5890 5889 5888 5887 5886 5885 5885 5884 5883 5883 5882 5881 5881 5880 5879 5879 5878 5878
5909 5911 5911 5911 5911 5911 5910 5908 5909 5908 5907 5907 5907 5906 5906 5905 5904 5903 5902 5900 5899 5898 5897 5895 5894 5894 5893 5892 5891 5890 5889 5889 5888 5886 5885 5884 5884 5883 5882 5881 5880 5879 5878 5877 5877 5876 5876 5875 5874
5905 5906 5907 5907 5907 5906 5906 5905 5905 5904 5904 5904 5903 5903 5902 5901 5901 5900 5898 5897 5897 5896 5894 5893 5892 5891 5890 5889 5888 5888 5887 5886 5885 5884 5883 5882 5881 5880 5879 5878 5877 5876 5875 5874 5873 5873 5872 5871 5870
5901 5902 5902 5902 5902 5901 5902 5901 5902 5901 5900 5900 5899 5899 5899 5898 5897 5896 5894 5893 5893 5892 5891 5890 5889 5888 5887 5886 5885 5884 5884 5883 5882 5881 5880 5879 5878 5876 5875 5874 5873 5872 5871 5870 5869 5869 5868 5867 5865
5896 5897 5897 5897 5897 5897 5897 5899 5898 5897 5897 5897 5896 5896 5895 5894 5893 5892 5891 5890 5889 5888 5887 5886 5885 5885 5884 5883 5882 5881 5880 5879 5878 5877 5876 5875 5874 5872 5871 5869 5868 5867 5866 5865 5864 5863 5862 5861 5860
5890 5891 5892 5892 5892 5891 5891 5895 5893 5893 5892 5892 5892 5891 5890 5889 5889 5888 5888 5886 5884 5883 5883 5882 5881 5881 5880 5879 5878 5877 5876 5875 5874 5873 5871 5870 5869 5868 5866 5864 5862 5861 5860 5859 5858 5857 5856 5855 5854